Overview Statistics Trail Chart Weather Telemetry Raw packets
 

This is the latest recevied weather packets stored in our database for station/object KB1WCR. If no packets are shown the sender has not sent any weather packets the latest 10 day(s).

<< 65 66 67 68 69 70 71 >>
Time Temp. Humidity Pressure Rain* Wind** Luminosity Snow
1787946350 27.78° C 78% 1014.1 hPa 0 mm - 441 W/m² -
1787946044 27.22° C 81% 1014 hPa 0 mm - 457 W/m² -
1787945744 26.11° C 82% 1014 hPa 0 mm - 256 W/m² -
1787945439 26.11° C 83% 1014.1 hPa 0 mm - 150 W/m² -
1787945135 26.67° C 81% 1014 hPa 0 mm - 189 W/m² -
1787944832 26.67° C 80% 1014.1 hPa 0 mm - 95 W/m² -
1787944527 27.22° C 80% 1014 hPa 0 mm - 104 W/m² -
1787944223 27.22° C 81% 1014.2 hPa 0 mm - 237 W/m² -
1787943922 27.22° C 82% 1014 hPa 0 mm - 263 W/m² -
1787943619 26.67° C 82% 1014.2 hPa 0 mm - 458 W/m² -
1787943318 26.67° C 81% 1014.3 hPa 0 mm - 296 W/m² -
1787943014 27.22° C 78% 1014.2 hPa 0 mm - 150 W/m² -
1787942709 27.22° C 77% 1014.4 hPa 0 mm - 173 W/m² -
1787942403 27.78° C 75% 1014.4 hPa 0 mm - 159 W/m² -
1787942098 28.33° C 74% 1014.3 hPa 0 mm - 168 W/m² -
1787941793 27.78° C 76% 1014.4 hPa 0 mm - 650 W/m² -
1787941492 28.33° C 76% 1014.4 hPa 0 mm - 673 W/m² -
1787941187 28.33° C 74% 1014.3 hPa 0 mm - 263 W/m² -
1787940881 28.33° C 73% 1014.3 hPa 0 mm - 695 W/m² -
1787940578 28.89° C 75% 1014.7 hPa 0 mm - 765 W/m² -
1787940272 28.33° C 73% 1014.6 hPa 0 mm - 766 W/m² -
1787939967 27.78° C 79% 1014.9 hPa 0 mm - 764 W/m² -
1787939666 27.22° C 78% 1014.6 hPa 0 mm - 351 W/m² -
1787939361 27.22° C 75% 1014.6 hPa 0 mm - 395 W/m² -
1787939056 26.67° C 78% 1014.6 hPa 0 mm - 521 W/m² -

* Rain latest hour (hover to see other rain measurements)
** Current wind speed in m/s (hover to see current wind gust speed)